Terminal Aerodrome Forecast
Issued by NWS

Home | Current Version | Previous Version | Text Only | Print | Product List | Glossary On
Versions: 1 2 3 4 5 6 7 8 9 10 11 12 13 14 15 16 17
000
FTUS44 KBMX 182320
TAFANB
TAF
KANB 182320Z 1900/1924 23007KT P6SM BKN035
     FM190100 15005KT P6SM BKN025
     FM190700 16008KT 5SM SHRA VCTS OVC007CB
     FM191400 17008KT P6SM OVC007
     FM191700 22009KT P6SM OVC015
     FM192000 23009KT P6SM SCT050 OVC250=

USA.gov is the U.S. government's official web portal to all federal, state and local government web resources and services.